User: anonymous   Login
Location: Phoenix
(33.4480°N, 112.0730°W)
Time: 07:25:00
(UTC-07:00)
Language:

Hubble Space Telescope - Orbit

View from above orbital plane
View from above orbital plane
View from above satellite
View from above satellite

Ground track
Ground track

The orbit data is extracted from the following two-line orbital elements,

1 20580U 90037B   16342.36127698  .00000349  00000-0  10550-4 0  9993
2 20580  28.4717 194.9184 0002739 262.7095  97.3147 15.08613762261283
Epoch (UTC): 07 December 2016 08:40:14
Eccentricity: 0.0002739
inclination: 28.4717°
perigee height: 538 km
apogee height: 542 km
right ascension of ascending node: 194.9184°
argument of perigee: 262.7095°
revolutions per day: 15.08613762
mean anomaly at epoch: 97.3147°
orbit number at epoch: 26128

The dashed part of the orbit path shows where the satellite is in the earth's shadow,  

DLR